Weather History for Richlands, VA

Change the Weather History Date:

Monday, May 27, 2013

  Actual Average (KBLF) Record (KBLF)
Temperature  
Mean Temperature 63 °F 65 °F  
Max Temperature 75 °F 74 °F 86 °F (2012)
Min Temperature 51 °F 56 °F 31 °F (1961)
Degree Days  
Heating Degree Days 2 3  
Month to date heating degree days 127  
Since 1 July heating degree days 4557  
Cooling Degree Days 0 3  
Month to date cooling degree days 50  
Year to date cooling degree days 78  
Growing Degree Days 13 (Base 50)    
Moisture  
Dew Point 51 °F    
Average Humidity 63    
Maximum Humidity 82    
Minimum Humidity 50    
Precipitation  
Precipitation 0.00 in 0.15 in 1.61 in (1991)
Month to date precipitation 3.70  
Year to date precipitation 16.21  
Snow  
Snow 0.00 in - - ()
Month to date snowfall  
Since 1 July snowfall  
Snow Depth -    
Sea Level Pressure  
Sea Level Pressure 30.23 in    
Wind  
Wind Speed 3 mph (SSW)    
Max Wind Speed 12 mph    
Max Gust Speed 16 mph    
Visibility 10 miles    
Events      
T = Trace of Precipitation, MM = Missing Value Source: NWS Daily Summary

Daily Weather History Graph

Daily Weather History Graph

Search for Another Location

Airport:

Trip Planner

Search our weather history database for the weather conditions in past years. The results will help you decide how hot, cold, wet, or windy it might be!

Date:

Astronomy

May. 27, 2013 Rise Set
Actual Time 6:10 AM EDT 8:38 PM EDT
Civil Twilight 5:40 AM EDT 9:08 PM EDT
Nautical Twilight 5:03 AM EDT 9:45 PM EDT
Astronomical Twilight 4:23 AM EDT 10:26 PM EDT
Moon 11:18 PM EDT (5/27) 8:45 AM EDT (5/27)
Length of Visible Light 15h 27m
Length of Day
14h 27m
Waning Gibbous, 91% of the Moon is Illuminated
May 27
Waning Gibbous
May 31
Last Quarter
Jun 8
New
Jun 16
First Quarter
Jun 23
Full

Hourly Weather History & Observations

Time (EDT) Temp. Dew Point Humidity Pressure Visibility Wind Dir Wind Speed Gust Speed Precip Events Conditions
12:15 AM 54.7 °F 44.6 °F 69% 30.26 in 10.0 mi Calm Calm - N/A   Overcast
12:35 AM 55.4 °F 42.6 °F 62% 30.26 in 10.0 mi Calm Calm - N/A   Overcast
12:55 AM 54.3 °F 43.0 °F 66% 30.27 in 10.0 mi NE 3.5 mph - N/A   Scattered Clouds
1:15 AM 52.3 °F 44.1 °F 73% 30.27 in 10.0 mi NE 5.8 mph - N/A   Clear
1:35 AM 54.1 °F 42.8 °F 66% 30.27 in 10.0 mi Calm Calm - N/A   Clear
1:55 AM 54.7 °F 42.6 °F 64% 30.27 in 10.0 mi Calm Calm - N/A   Clear
2:15 AM 55.4 °F 42.1 °F 61% 30.26 in 10.0 mi Calm Calm - N/A   Clear
2:35 AM 52.2 °F 43.2 °F 71% 30.26 in 10.0 mi Calm Calm - N/A   Clear
2:55 AM 52.5 °F 43.5 °F 71% 30.25 in 10.0 mi Calm Calm - N/A   Clear
3:15 AM 51.8 °F 43.5 °F 73% 30.25 in 10.0 mi NE 3.5 mph - N/A   Clear
3:35 AM 51.1 °F 43.3 °F 75% 30.24 in 10.0 mi ENE 3.5 mph - N/A   Clear
3:55 AM 54.1 °F 43.2 °F 66% 30.24 in 10.0 mi Calm Calm - N/A   Clear
4:15 AM 51.4 °F 43.0 °F 73% 30.24 in 10.0 mi Calm Calm - N/A   Clear
4:35 AM 52.2 °F 43.3 °F 72% 30.24 in 10.0 mi NE 4.6 mph - N/A   Clear
4:55 AM 51.3 °F 43.2 °F 74% 30.25 in 10.0 mi NE 3.5 mph - N/A   Clear
5:15 AM 51.3 °F 43.0 °F 73% 30.25 in 10.0 mi NE 3.5 mph - N/A   Clear
5:35 AM 54.1 °F 44.2 °F 69% 30.25 in 10.0 mi SSE 3.5 mph - N/A   Mostly Cloudy
5:55 AM 51.6 °F 43.7 °F 74% 30.25 in 10.0 mi Calm Calm - N/A   Overcast
6:15 AM 55.6 °F 44.2 °F 66% 30.25 in 10.0 mi SSE 3.5 mph - N/A   Overcast
6:35 AM 51.6 °F 45.5 °F 80% 30.25 in 10.0 mi Calm Calm - N/A   Overcast
6:55 AM 55.0 °F 43.9 °F 66% 30.26 in 10.0 mi Calm Calm - N/A   Overcast
7:15 AM 53.2 °F 45.3 °F 74% 30.26 in 10.0 mi Calm Calm - N/A   Overcast
7:35 AM 54.3 °F 46.0 °F 74% 30.26 in 10.0 mi Calm Calm - N/A   Overcast
7:55 AM 56.1 °F 45.7 °F 68% 30.27 in 10.0 mi Calm Calm - N/A   Overcast
8:15 AM 57.6 °F 46.9 °F 68% 30.27 in 10.0 mi Calm Calm - N/A   Overcast
8:35 AM 55.8 °F 50.4 °F 82% 30.27 in 10.0 mi Calm Calm - N/A   Overcast
8:55 AM 57.2 °F 47.1 °F 69% 30.27 in 10.0 mi Calm Calm - N/A   Overcast
9:15 AM 59.4 °F 47.7 °F 65% 30.27 in 10.0 mi Calm Calm - N/A   Overcast
9:35 AM 61.2 °F 50.2 °F 67% 30.27 in 10.0 mi SE 3.5 mph - N/A   Scattered Clouds
9:55 AM 61.5 °F 50.5 °F 67% 30.27 in 10.0 mi Calm Calm - N/A   Scattered Clouds
10:15 AM 64.4 °F 50.9 °F 62% 30.27 in 10.0 mi Calm Calm - N/A   Scattered Clouds
10:35 AM 64.2 °F 52.3 °F 65% 30.26 in 10.0 mi Calm Calm - N/A   Mostly Cloudy
10:55 AM 65.7 °F 51.8 °F 61% 30.26 in 10.0 mi Calm Calm - N/A   Overcast
11:15 AM 66.4 °F 52.5 °F 61% 30.26 in 10.0 mi SW 3.5 mph - N/A   Overcast
11:35 AM 67.3 °F 52.3 °F 59% 30.26 in 10.0 mi SW 3.5 mph - N/A   Overcast
11:55 AM 67.8 °F 52.5 °F 58% 30.26 in 10.0 mi SW 4.6 mph - N/A   Overcast
12:15 PM 68.4 °F 52.7 °F 57% 30.26 in 10.0 mi WSW 3.5 mph - N/A   Overcast
12:35 PM 69.1 °F 53.8 °F 58% 30.26 in 10.0 mi SW 5.8 mph - N/A   Mostly Cloudy
12:55 PM 70.7 °F 55.8 °F 59% 30.26 in 10.0 mi WSW 4.6 mph - N/A   Scattered Clouds
1:15 PM 70.2 °F 54.5 °F 57% 30.25 in 10.0 mi SSW 6.9 mph - N/A   Mostly Cloudy
1:35 PM 71.4 °F 55.0 °F 56% 30.24 in 10.0 mi SSW 6.9 mph - N/A   Scattered Clouds
1:55 PM 72.1 °F 55.0 °F 55% 30.24 in 10.0 mi West 9.2 mph - N/A   Scattered Clouds
2:15 PM 73.2 °F 55.4 °F 54% 30.23 in 10.0 mi WSW 11.5 mph 16.1 mph N/A   Scattered Clouds
2:35 PM 73.0 °F 55.2 °F 53% 30.22 in 10.0 mi WSW 9.2 mph - N/A   Scattered Clouds
2:55 PM 73.4 °F 55.4 °F 53% 30.22 in 10.0 mi SW 9.2 mph - N/A   Scattered Clouds
3:15 PM 73.2 °F 54.3 °F 51% 30.21 in 10.0 mi WSW 6.9 mph - N/A   Clear
3:35 PM 73.9 °F 55.2 °F 52% 30.21 in 10.0 mi West 6.9 mph 10.4 mph N/A   Clear
3:55 PM 74.5 °F 55.4 °F 51% 30.20 in 10.0 mi WSW 9.2 mph - N/A   Clear
4:15 PM 75.2 °F 56.1 °F 51% 30.19 in 10.0 mi SSW 8.1 mph - N/A   Scattered Clouds
4:35 PM 74.7 °F 55.2 °F 51% 30.19 in 10.0 mi SW 5.8 mph - N/A   Scattered Clouds
4:55 PM 75.0 °F 55.4 °F 50% 30.19 in 10.0 mi WSW 9.2 mph - N/A   Clear
5:15 PM 73.9 °F 56.1 °F 54% 30.20 in 10.0 mi West 8.1 mph - N/A   Clear
5:35 PM 73.6 °F 55.9 °F 54% 30.20 in 10.0 mi WSW 4.6 mph - N/A   Mostly Cloudy
5:55 PM 73.6 °F 55.6 °F 53% 30.19 in 10.0 mi South 5.8 mph - N/A   Scattered Clouds
6:15 PM 74.1 °F 56.5 °F 54% 30.19 in 10.0 mi SSW 6.9 mph - N/A   Scattered Clouds
6:35 PM 74.3 °F 57.2 °F 55% 30.18 in 10.0 mi SW 8.1 mph - N/A   Clear
6:55 PM 73.8 °F 56.3 °F 54% 30.16 in 10.0 mi SW 3.5 mph - N/A   Clear
7:15 PM 73.4 °F 56.1 °F 55% 30.16 in 10.0 mi WSW 5.8 mph - N/A   Clear
7:35 PM 72.7 °F 55.9 °F 56% 30.16 in 10.0 mi WSW 5.8 mph - N/A   Clear
7:55 PM 72.1 °F 55.8 °F 56% 30.17 in 10.0 mi WSW 5.8 mph - N/A   Clear
8:15 PM 71.6 °F 56.3 °F 58% 30.17 in 10.0 mi WSW 4.6 mph - N/A   Clear
8:35 PM 70.7 °F 55.8 °F 59% 30.18 in 10.0 mi WSW 4.6 mph - N/A   Scattered Clouds
8:55 PM 70.7 °F 55.6 °F 59% 30.18 in 10.0 mi WSW 4.6 mph - N/A   Scattered Clouds
9:15 PM 69.8 °F 55.6 °F 61% 30.19 in 10.0 mi SW 3.5 mph - N/A   Mostly Cloudy
9:35 PM 69.4 °F 55.6 °F 61% 30.19 in 10.0 mi South 3.5 mph - N/A   Mostly Cloudy
9:55 PM 67.6 °F 56.5 °F 67% 30.20 in 10.0 mi SSE 4.6 mph - N/A   Scattered Clouds
10:15 PM 68.0 °F 56.3 °F 66% 30.20 in 10.0 mi SSE 4.6 mph - N/A   Mostly Cloudy
10:35 PM 67.5 °F 56.5 °F 68% 30.21 in 10.0 mi SSE 4.6 mph - N/A   Overcast
10:55 PM 66.7 °F 56.7 °F 70% 30.21 in 10.0 mi South 4.6 mph - N/A   Overcast
11:15 PM 66.9 °F 56.5 °F 69% 30.21 in 10.0 mi South 5.8 mph - N/A   Overcast
11:35 PM 66.6 °F 56.5 °F 70% 30.21 in 10.0 mi South 5.8 mph - N/A   Overcast
11:55 PM 66.0 °F 55.9 °F 70% 30.21 in 10.0 mi South 5.8 mph - N/A   Scattered Clouds